Location: Praha
(50.0875°N, 14.4213°E)
Time: 05:55:04
(UTC+02:00)

ISS - Pass Details

Date: 22 May 2026
Orbit: 413 x 423 km, 51.6° (Epoch: 5 June)

Event Time Altitude Azimuth Distance (km) Brightness Sun altitude
Rises 22:38:52 0° 284° (WNW) 2,352 0.8 -12.9°
Reaches altitude 10° 22:41:23 10° 264° (W) 1,486 -0.6 -13.1°
Maximum altitude 22:43:44 18° 219° (SW) 1,092 -1.8 -13.3°
Enters shadow 22:44:48 16° 195° (SSW) 1,182 -1.9 -13.4°
